Home > Weather > Lubbock > Past weeks

Flag for USA Past Weather in Lubbock, Texas, USA — Yesterday and Last 2 Weeks

Now
93 °F

Broken clouds.


Feels Like: 92 °F
Forecast: 70 / 92 °F
Wind: 18 mph from Southeast

Location: Lubbock International Airport

Current Time: Jun 25, 2016 at 4:28:41 PM

Latest Report: Jun 25, 2016 at 3:53 PM


Visibility: 10 mi

Pressure: 29.83 "Hg (26.76 "Hg at 976m altitude)

Humidity: 32%

Dew Point: 59 °F

Location of LubbockLocation

Past Weather in Lubbock — Graph

°F

Lubbock Temperature Yesterday

Maximum temperature yesterday: 95 °F (at 2:53 PM)
Minimum temperature yesterday: 74 °F (at 4:53 AM)
Average temperature yesterday: 83 °F

High & Low Weather Summary for the Past Weeks

 TemperatureHumidityPressure
High104 °F (Jun 17, 3:53 PM)93% (Jun 12, 7:01 AM)30.14 "Hg (Jun 12, 7:01 AM)
Low66 °F (Jun 12, 4:53 AM)8% (Jun 17, 6:53 PM)29.66 "Hg (Jun 14, 6:53 PM)
Average82 °F54%29.88 "Hg
* Reported Jun 10 2:53 PM — Jun 25 2:53 PM, Lubbock, Weather by CustomWeather, © 2016

Note: Actual official high and low records may vary slightly from our data, if they occured in-between our weather recording intervals... More about our weather records

Advertising

Lubbock Weather History for the Previous 24 Hours

Scroll right to see more
 ConditionsComfort  
Time TempWeatherWind HumidityBarometerVisibility
2:53 PM
Sat, Jun 25
90 °FBroken clouds.18 mph35%29.85 "Hg10 mi
1:53 PM90 °FScattered clouds.23 mph35%29.87 "Hg10 mi
12:53 PM89 °FScattered clouds.17 mph38%29.88 "Hg10 mi
11:53 AM87 °FScattered clouds.14 mph39%29.88 "Hg10 mi
10:53 AM83 °FScattered clouds.18 mph53%29.89 "Hg10 mi
9:53 AM80 °FPassing clouds.22 mph60%29.91 "Hg10 mi
8:53 AM76 °FPassing clouds.21 mph69%29.90 "Hg10 mi
7:53 AM73 °FPassing clouds.18 mph71%29.90 "Hg10 mi
6:53 AM72 °FPassing clouds.14 mph71%29.88 "Hg10 mi
5:53 AM73 °FPassing clouds.14 mph66%29.87 "Hg10 mi
4:53 AM74 °FClear.15 mph60%29.85 "Hg10 mi
3:53 AM76 °FClear.17 mph54%29.84 "Hg10 mi
2:53 AM75 °FPassing clouds.17 mph54%29.85 "Hg10 mi
1:53 AM76 °FClear.13 mph54%29.85 "Hg10 mi
12:53 AM78 °FClear.16 mph50%29.86 "Hg10 mi
11:53 PM
Fri, Jun 24
79 °FClear.14 mph48%29.87 "Hg10 mi
10:53 PM80 °FPassing clouds.13 mph45%29.87 "Hg10 mi
9:53 PM82 °FPassing clouds.9 mph41%29.84 "Hg10 mi
8:53 PM85 °FPassing clouds.15 mph36%29.82 "Hg10 mi
7:53 PM89 °FPassing clouds.16 mph31%29.80 "Hg10 mi
6:53 PM91 °FScattered clouds.16 mph30%29.80 "Hg10 mi
5:53 PM93 °FScattered clouds.18 mph27%29.81 "Hg10 mi
4:53 PM94 °FPartly sunny.21 mph27%29.82 "Hg10 mi
Weather by CustomWeather, © 2016

See weather overviewHow to use our weather pages